Location: Kellogg
(38.0159°N, 90.0546°W)
Time: 16:17:22
(UTC+00:00)

Vanguard 1 Rocket - Pass Details

Date: 19 September 2024
Orbit: 650 x 4218 km, 34.3° (Epoch: 07 October)

Event Time Altitude Azimuth Distance (km) Brightness Sun altitude
Rises 12:35:55 0° 278° (W) 6,387 11.0 9.0°
Reaches altitude 10° 12:39:26 10° 276° (W) 5,742 10.9 9.7°
Maximum altitude 12:59:27 72° 197° (SSW) 4,143 10.9 13.6°
Drops below altitude 10° 13:25:29 10° 120° (ESE) 7,128 13.7 18.6°
Sets 13:30:31 0° 118° (ESE) 7,904 13.6 19.6°
